Weather History for Rantoul, IL

Change the Weather History Date:

Tuesday, September 17, 2013

  Actual Average (KCMI) Record (KCMI)
Temperature  
Mean Temperature 62 °F 65 °F  
Max Temperature 76 °F 78 °F 88 °F (2006)
Min Temperature 50 °F 53 °F 41 °F (1999)
Degree Days  
Heating Degree Days 2 3  
Month to date heating degree days 20  
Since 1 July heating degree days 29  
Cooling Degree Days 0 3  
Month to date cooling degree days 72  
Year to date cooling degree days 899  
Growing Degree Days 12 (Base 50)    
Moisture  
Dew Point 50 °F    
Average Humidity 66    
Maximum Humidity 89    
Minimum Humidity 35    
Precipitation  
Precipitation 0.00 in 0.08 in 0.49 in (2006)
Month to date precipitation 2.00  
Year to date precipitation 29.28  
Sea Level Pressure  
Sea Level Pressure 30.24 in    
Wind  
Wind Speed 6 mph (ESE)    
Max Wind Speed 12 mph    
Max Gust Speed 17 mph    
Visibility 10 miles    
Events      
T = Trace of Precipitation, MM = Missing Value Source: NWS Daily Summary

Daily Weather History Graph

Daily Weather History Graph

Search for Another Location

Airport:

Trip Planner

Search our weather history database for the weather conditions in past years. The results will help you decide how hot, cold, wet, or windy it might be!

Date:

Astronomy

Sep. 17, 2013 Rise Set
Actual Time 6:35 AM CDT 6:57 PM CDT
Civil Twilight 6:08 AM CDT 7:24 PM CDT
Nautical Twilight 5:36 AM CDT 7:56 PM CDT
Astronomical Twilight 5:03 AM CDT 8:29 PM CDT
Moon 5:44 PM CDT (9/17) 4:29 AM CDT (9/17)
Length of Visible Light 13h 16m
Length of Day
12h 22m
Waxing Gibbous, 96% of the Moon is Illuminated
Sep 17
Waxing Gibbous
Sep 19
Full
Sep 26
Last Quarter
Oct 4
New
Oct 11
First Quarter

Hourly Weather History & Observations

Time (CDT) Temp. Dew Point Humidity Pressure Visibility Wind Dir Wind Speed Gust Speed Precip Events Conditions
12:15 AM 53.8 °F 49.3 °F 85% 30.32 in 10.0 mi ENE 8.1 mph - N/A   Clear
12:35 AM 53.1 °F 49.1 °F 86% 30.32 in 10.0 mi ENE 5.8 mph - N/A   Clear
12:55 AM 52.7 °F 48.7 °F 86% 30.32 in 10.0 mi ENE 4.6 mph - N/A   Clear
1:15 AM 52.9 °F 48.9 °F 86% 30.32 in 10.0 mi NE 5.8 mph - N/A   Clear
1:35 AM 52.7 °F 48.7 °F 86% 30.32 in 10.0 mi ENE 5.8 mph - N/A   Clear
1:55 AM 52.3 °F 48.7 °F 88% 30.32 in 10.0 mi ENE 5.8 mph - N/A   Clear
2:15 AM 52.5 °F 48.7 °F 87% 30.32 in 10.0 mi ENE 5.8 mph - N/A   Clear
2:35 AM 52.3 °F 48.6 °F 87% 30.31 in 10.0 mi ENE 6.9 mph - N/A   Clear
2:55 AM 51.8 °F 48.2 °F 88% 30.32 in 10.0 mi ENE 5.8 mph - N/A   Clear
3:15 AM 51.3 °F 48.2 °F 89% 30.31 in 10.0 mi ENE 5.8 mph - N/A   Clear
3:35 AM 51.4 °F 48.2 °F 89% 30.31 in 10.0 mi ENE 5.8 mph - N/A   Clear
3:55 AM 51.1 °F 48.0 °F 89% 30.31 in 10.0 mi ENE 5.8 mph - N/A   Clear
4:15 AM 50.9 °F 47.8 °F 89% 30.30 in 10.0 mi ENE 4.6 mph - N/A   Clear
4:35 AM 50.9 °F 47.7 °F 89% 30.30 in 10.0 mi ENE 4.6 mph - N/A   Clear
4:55 AM 51.8 °F 48.2 °F 88% 30.30 in 10.0 mi ENE 5.8 mph - N/A   Clear
5:15 AM 51.8 °F 48.2 °F 88% 30.30 in 10.0 mi ENE 5.8 mph - N/A   Clear
5:35 AM 50.9 °F 47.5 °F 88% 30.30 in 10.0 mi East 5.8 mph - N/A   Clear
5:55 AM 50.5 °F 47.3 °F 89% 30.30 in 10.0 mi East 5.8 mph - N/A   Clear
6:15 AM 50.5 °F 47.5 °F 89% 30.30 in 10.0 mi East 4.6 mph - N/A   Clear
6:35 AM 50.5 °F 47.5 °F 89% 30.30 in 10.0 mi East 5.8 mph - N/A   Clear
6:55 AM 50.9 °F 47.7 °F 89% 30.31 in 10.0 mi ENE 5.8 mph - N/A   Clear
7:15 AM 51.3 °F 48.2 °F 89% 30.31 in 7.0 mi East 4.6 mph - N/A   Scattered Clouds
7:35 AM 52.5 °F 48.9 °F 88% 30.31 in 10.0 mi East 6.9 mph - N/A   Overcast
7:55 AM 53.2 °F 49.5 °F 87% 30.31 in 7.0 mi East 4.6 mph - N/A   Mostly Cloudy
8:15 AM 54.5 °F 50.2 °F 85% 30.31 in 10.0 mi East 5.8 mph - N/A   Mostly Cloudy
8:35 AM 56.5 °F 50.9 °F 82% 30.31 in 10.0 mi East 6.9 mph - N/A   Mostly Cloudy
8:55 AM 57.2 °F 51.3 °F 81% 30.31 in 10.0 mi ESE 6.9 mph - N/A   Mostly Cloudy
9:15 AM 58.5 °F 51.8 °F 79% 30.31 in 10.0 mi ESE 9.2 mph - N/A   Overcast
9:35 AM 59.9 °F 52.2 °F 76% 30.31 in 10.0 mi SE 9.2 mph - N/A   Overcast
9:55 AM 61.5 °F 52.2 °F 71% 30.32 in 10.0 mi ESE 9.2 mph - N/A   Mostly Cloudy
10:15 AM 62.4 °F 52.3 °F 70% 30.31 in 10.0 mi ESE 8.1 mph - N/A   Mostly Cloudy
10:35 AM 64.0 °F 52.7 °F 67% 30.30 in 10.0 mi ESE 8.1 mph - N/A   Mostly Cloudy
10:55 AM 65.7 °F 52.9 °F 63% 30.30 in 10.0 mi ESE 8.1 mph - N/A   Scattered Clouds
11:15 AM 66.6 °F 53.2 °F 62% 30.30 in 10.0 mi SE 8.1 mph - N/A   Scattered Clouds
11:35 AM 68.0 °F 53.6 °F 60% 30.29 in 10.0 mi SE 6.9 mph - N/A   Scattered Clouds
11:55 AM 68.7 °F 53.1 °F 57% 30.29 in 10.0 mi ESE 6.9 mph - N/A   Clear
12:15 PM 70.2 °F 52.7 °F 54% 30.27 in 10.0 mi SE 9.2 mph - N/A   Clear
12:35 PM 71.8 °F 52.0 °F 50% 30.26 in 10.0 mi ESE 6.9 mph - N/A   Clear
12:55 PM 71.8 °F 51.6 °F 49% 30.26 in 10.0 mi ESE 11.5 mph - N/A   Scattered Clouds
1:15 PM 72.3 °F 50.9 °F 47% 30.24 in 10.0 mi ESE 10.4 mph - N/A   Scattered Clouds
1:35 PM 73.2 °F 49.6 °F 43% 30.24 in 10.0 mi ESE 6.9 mph - N/A   Clear
1:55 PM 73.4 °F 50.0 °F 44% 30.23 in 10.0 mi SE 10.4 mph - N/A   Clear
2:15 PM 73.9 °F 49.6 °F 42% 30.22 in 10.0 mi ESE 8.1 mph - N/A   Clear
2:35 PM 75.2 °F 49.1 °F 40% 30.20 in 10.0 mi ESE 11.5 mph - N/A   Clear
2:55 PM 75.9 °F 48.9 °F 38% 30.20 in 10.0 mi ESE 8.1 mph - N/A   Clear
3:15 PM 75.9 °F 47.5 °F 36% 30.19 in 10.0 mi ESE 5.8 mph 16.1 mph N/A   Clear
3:35 PM 75.6 °F 46.2 °F 35% 30.19 in 10.0 mi SSE 9.2 mph - N/A   Clear
3:55 PM 75.2 °F 46.9 °F 37% 30.19 in 10.0 mi SE 9.2 mph - N/A   Clear
4:15 PM 74.8 °F 46.6 °F 37% 30.18 in 10.0 mi SE 6.9 mph - N/A   Clear
4:35 PM 75.2 °F 47.5 °F 37% 30.18 in 10.0 mi SE 9.2 mph 17.3 mph N/A   Clear
4:55 PM 74.3 °F 47.3 °F 38% 30.18 in 10.0 mi ESE 9.2 mph - N/A   Clear
5:15 PM 73.8 °F 48.6 °F 41% 30.18 in 10.0 mi SE 8.1 mph - N/A   Clear
5:35 PM 73.4 °F 48.2 °F 41% 30.18 in 10.0 mi SE 8.1 mph - N/A   Clear
5:55 PM 72.9 °F 48.2 °F 42% 30.17 in 10.0 mi SE 8.1 mph - N/A   Clear
6:15 PM 72.0 °F 48.9 °F 44% 30.17 in 10.0 mi SE 6.9 mph - N/A   Clear
6:35 PM 70.9 °F 49.6 °F 47% 30.16 in 10.0 mi SE 5.8 mph - N/A   Clear
6:55 PM 70.0 °F 50.5 °F 50% 30.16 in 10.0 mi SE 4.6 mph - N/A   Clear
7:15 PM 69.3 °F 51.1 °F 52% 30.16 in 10.0 mi SSE 4.6 mph - N/A   Clear
7:35 PM 68.7 °F 51.8 °F 55% 30.16 in 10.0 mi SE 3.5 mph - N/A   Clear
7:55 PM 67.6 °F 52.3 °F 58% 30.16 in 10.0 mi SE 3.5 mph - N/A   Clear
8:15 PM 67.1 °F 52.7 °F 60% 30.16 in 10.0 mi ESE 3.5 mph - N/A   Clear
8:35 PM 67.1 °F 52.7 °F 60% 30.16 in 10.0 mi ESE 4.6 mph - N/A   Scattered Clouds
8:55 PM 66.7 °F 52.9 °F 61% 30.16 in 10.0 mi SE 4.6 mph - N/A   Mostly Cloudy
9:15 PM 67.3 °F 52.5 °F 59% 30.15 in 10.0 mi SE 4.6 mph - N/A   Mostly Cloudy
9:35 PM 66.6 °F 53.4 °F 63% 30.15 in 10.0 mi ESE 5.8 mph - N/A   Overcast
9:55 PM 66.2 °F 53.2 °F 63% 30.15 in 10.0 mi SE 5.8 mph - N/A   Scattered Clouds
10:15 PM 66.4 °F 53.4 °F 63% 30.15 in 10.0 mi SE 5.8 mph - N/A   Mostly Cloudy
10:35 PM 65.8 °F 53.8 °F 65% 30.14 in 10.0 mi SE 4.6 mph - N/A   Scattered Clouds
10:55 PM 65.8 °F 53.6 °F 65% 30.14 in 10.0 mi SE 4.6 mph - N/A   Scattered Clouds
11:15 PM 65.5 °F 53.6 °F 65% 30.14 in 10.0 mi Calm Calm - N/A   Scattered Clouds
11:35 PM 65.3 °F 54.0 °F 67% 30.13 in 10.0 mi SE 3.5 mph - N/A   Clear
11:55 PM 65.1 °F 54.0 °F 67% 30.13 in 10.0 mi SE 3.5 mph - N/A   Scattered Clouds